DW1886 Weather Reports


Display with metric or nautical units.
time (UTC)temp
F
wind
direction
speed
MPH
gust
MPH
rain 1hr
in
rain 24hr
in
rain mn
in
humidity
%
barometer
mb
20260509002228 58 2 1.0 3.0 0.00 0.01 0.01 84 1009.5
20260509001728 58 52 1.0 3.0 0.00 0.01 0.01 82 1009.5
20260509001230 58 84 1.0 2.0 0.00 0.01 0.01 83 1009.5
20260509000954 58 67 2.0 2.0 0.00 0.01 0.01 82 1009.5
20260509000230 58 67 1.0 2.0 0.01 0.01 0.01 82 1009.5
20260509000000 59 0 1.0 2.0 0.01 0.01 0.01 81 1009.5
20260508235232 59 30 1.0 2.0 0.01 0.01 0.01 80 1009.5
20260508234733 59 50 1.0 2.0 0.01 0.01 0.01 80 1009.5
20260508234233 59 60 1.0 2.0 0.01 0.01 0.01 80 1009.5
20260508233729 59 103 1.0 2.0 0.01 0.01 0.01 79 1009.5
20260508233230 59 24 1.0 2.0 0.01 0.01 0.01 78 1009.6
20260508232725 60 342 1.0 2.0 0.01 0.01 0.01 77 1009.6
20260508232223 60 12 1.0 2.0 0.01 0.01 0.01 76 1009.6
20260508231722 60 6 2.0 2.0 0.01 0.01 0.01 75 1009.7
20260508231215 61 2 1.0 2.0 0.00 0.00 0.00 74 1009.6
20260508230716 61 359 0.0 2.0 0.00 0.00 0.00 72 1009.5
20260508230443 61 0 1.0 2.0 0.00 0.00 0.00 71 1009.7
20260508225716 62 0 1.0 2.0 0.00 0.00 0.00 69 1009.7
20260508225205 62 359 0.0 2.0 0.00 0.00 0.00 66 1009.7
20260508224925 63 357 0.0 1.0 0.00 0.00 0.00 65 1009.4
20260508224201 63 0 0.0 1.0 0.00 0.00 0.00 61 1009.6
20260508223920 63 0 0.0 1.0 0.00 0.00 0.00 62 1009.5
20260508223201 63 0 0.0 1.0 0.00 0.00 0.00 60 1009.6
20260508222700 63 0 0.0 1.0 0.00 0.00 0.00 59 1009.8
20260508222158 63 0 0.0 1.0 0.00 0.00 0.00 57 1009.9
20260508221657 63 0 1.0 2.0 0.00 0.00 0.00 57 1009.7
20260508221157 64 3 1.0 2.0 0.00 0.00 0.00 55 1009.8
20260508220658 64 0 1.0 2.0 0.00 0.00 0.00 53 1010.1
20260508220157 64 337 1.0 2.0 0.00 0.00 0.00 57 1009.7
20260508215657 64 322 1.0 2.0 0.00 0.00 0.00 53 1009.9
20260508215156 64 330 1.0 2.0 0.00 0.00 0.00 53 1009.7
20260508214655 65 0 1.0 2.0 0.00 0.00 0.00 53 1009.8
20260508214153 65 308 0.0 2.0 0.00 0.00 0.00 51 1009.9
20260508213923 65 0 0.0 2.0 0.00 0.00 0.00 53 1009.8
20260508213150 65 358 1.0 4.0 0.00 0.00 0.00 50 1010.0
20260508212650 65 303 1.0 5.0 0.00 0.00 0.00 48 1010.1
20260508212150 65 313 1.0 5.0 0.00 0.00 0.00 49 1010.4
20260508211649 65 302 0.0 3.0 0.00 0.00 0.00 55 1010.0
20260508211151 65 0 0.0 2.0 0.00 0.00 0.00 52 1010.0
20260508210650 65 0 0.0 3.0 0.00 0.00 0.00 50 1010.4
20260508210151 65 350 1.0 5.0 0.00 0.00 0.00 49 1010.2
20260508205916 65 244 2.0 5.0 0.00 0.00 0.00 49 1010.5
20260508205150 65 263 2.0 4.0 0.00 0.00 0.00 46 1010.9
20260508204647 65 282 1.0 4.0 0.00 0.00 0.00 49 1010.5
20260508204147 66 169 1.0 6.0 0.00 0.00 0.00 48 1010.6
20260508203911 66 169 2.0 6.0 0.00 0.00 0.00 45 1010.9
20260508203149 66 0 2.0 6.0 0.00 0.00 0.00 46 1010.7
20260508202648 66 242 2.0 5.0 0.00 0.00 0.00 47 1011.1
20260508202148 66 307 2.0 5.0 0.00 0.00 0.00 47 1011.2
20260508201647 66 251 2.0 5.0 0.00 0.00 0.00 47 1010.9
20260508201148 66 259 2.0 5.0 0.00 0.00 0.00 46 1011.3
20260508200648 66 280 2.0 6.0 0.00 0.00 0.00 45 1011.2
20260508200633 66 0 2.0 7.0 0.00 0.00 0.00 44 1011.5
20260508195644 66 274 2.0 7.0 0.00 0.00 0.00 41 1011.5
20260508195143 66 273 2.0 6.0 0.00 0.00 0.00 46 1011.3
20260508194646 67 271 3.0 6.0 0.00 0.00 0.00 45 1011.6
20260508194143 67 266 2.0 6.0 0.00 0.00 0.00 41 1011.8
20260508193644 68 298 1.0 4.0 0.00 0.00 0.00 46 1011.3
20260508193143 68 61 1.0 4.0 0.00 0.00 0.00 48 1011.0
20260508192642 69 21 2.0 7.0 0.00 0.00 0.00 41 1011.9
20260508192143 69 233 2.0 7.0 0.00 0.00 0.00 45 1011.7
20260508191643 69 276 3.0 8.0 0.00 0.00 0.00 42 1011.9
20260508191403 69 264 4.0 9.0 0.00 0.00 0.00 42 1011.9
20260508190641 70 264 3.0 9.0 0.00 0.00 0.00 43 1011.6
20260508190143 70 299 2.0 9.0 0.00 0.00 0.00 38 1012.5
20260508185640 70 220 2.0 6.0 0.00 0.00 0.00 44 1012.1
20260508185140 69 185 2.0 10.0 0.00 0.00 0.00 45 1011.9
20260508184904 70 192 3.0 10.0 0.00 0.00 0.00 46 1013.0
20260508184139 71 288 3.0 10.0 0.00 0.00 0.00 41 1012.9
20260508183641 70 160 2.0 5.0 0.00 0.00 0.00 48 1012.0
20260508183140 69 195 2.0 5.0 0.00 0.00 0.00 47 1011.8
20260508182906 69 82 3.0 9.0 0.00 0.00 0.00 49 1012.2
20260508182140 69 254 3.0 9.0 0.00 0.00 0.00 45 1012.5
20260508181641 69 281 2.0 7.0 0.00 0.00 0.00 43 1012.3
20260508181141 68 187 2.0 5.0 0.00 0.00 0.00 43 1013.0
20260508180642 67 202 1.0 5.0 0.00 0.00 0.00 48 1012.4
20260508180141 67 272 1.0 4.0 0.00 0.00 0.00 45 1013.0
20260508175640 67 73 2.0 6.0 0.00 0.00 0.00 46 1012.9
20260508175140 67 293 2.0 6.0 0.00 0.00 0.00 47 1012.4
20260508174640 66 178 1.0 5.0 0.00 0.00 0.00 52 1012.5
20260508174140 65 248 1.0 5.0 0.00 0.00 0.00 50 1013.0
20260508173639 65 152 1.0 4.0 0.00 0.00 0.00 50 1012.9
20260508173141 65 40 2.0 8.0 0.00 0.00 0.00 49 1013.1
20260508172642 65 0 2.0 8.0 0.00 0.00 0.00 52 1012.9
20260508172142 66 279 2.0 6.0 0.00 0.00 0.00 50 1012.9
20260508171642 67 275 2.0 6.0 0.00 0.00 0.00 47 1013.5
20260508171142 68 256 2.0 5.0 0.00 0.00 0.00 49 1013.1
20260508170641 69 160 2.0 7.0 0.00 0.00 0.00 47 1013.7
20260508170141 69 227 2.0 7.0 0.00 0.00 0.00 46 1013.2
20260508165637 69 283 2.0 9.0 0.00 0.00 0.00 49 1013.9
20260508165136 69 200 2.0 9.0 0.00 0.00 0.00 43 1014.0
20260508164637 68 221 3.0 11.0 0.00 0.00 0.00 52 1013.4
20260508164135 68 82 3.0 11.0 0.00 0.00 0.00 46 1013.9
20260508163636 69 263 3.0 7.0 0.00 0.00 0.00 55 1013.4
20260508163353 68 167 2.0 8.0 0.00 0.00 0.00 55 1013.4
20260508162636 68 294 2.0 8.0 0.00 0.00 0.00 54 1013.1
20260508162137 68 286 2.0 9.0 0.00 0.00 0.00 50 1013.3
20260508161637 68 238 3.0 9.0 0.00 0.00 0.00 47 1014.1
20260508161400 67 275 3.0 9.0 0.00 0.00 0.00 50 1013.7
20260508160636 67 291 3.0 8.0 0.00 0.00 0.00 49 1013.9
20260508160134 67 159 2.0 6.0 0.00 0.00 0.00 48 1014.2
20260508155902 67 0 2.0 6.0 0.00 0.00 0.00 49 1014.2
20260508155135 66 247 2.0 7.0 0.00 0.00 0.00 55 1014.0
20260508154636 65 113 2.0 8.0 0.00 0.00 0.00 58 1013.9
20260508154137 65 250 3.0 8.0 0.00 0.00 0.00 54 1014.2
20260508153901 64 268 3.0 8.0 0.00 0.00 0.00 59 1013.8
20260508153136 64 236 4.0 10.0 0.00 0.00 0.00 58 1014.2
20260508152900 63 187 5.0 10.0 0.00 0.00 0.00 52 1014.6
20260508152136 64 259 4.0 9.0 0.00 0.00 0.00 55 1014.3
20260508151637 64 280 3.0 9.0 0.00 0.00 0.00 59 1014.0
20260508151136 64 266 2.0 9.0 0.00 0.00 0.00 50 1014.4
20260508150635 63 205 2.0 9.0 0.00 0.00 0.00 55 1014.0
20260508150135 63 286 2.0 6.0 0.00 0.00 0.00 57 1013.8
20260508145854 62 238 4.0 10.0 0.00 0.00 0.00 61 1014.4
20260508145402 61 283 4.0 10.0 0.00 0.00 0.00 54 1014.4
20260508144850 62 280 4.0 10.0 0.00 0.00 0.00 54 1014.6
20260508144132 62 244 3.0 10.0 0.00 0.00 0.00 54 1014.7
20260508143633 62 237 2.0 8.0 0.00 0.00 0.00 54 1014.8
20260508143618 61 228 2.0 8.0 0.00 0.00 0.00 54 1014.4
20260508142633 61 262 3.0 9.0 0.00 0.00 0.00 55 1014.3
20260508142132 60 344 4.0 9.0 0.00 0.00 0.00 56 1015.0
20260508141632 60 305 3.0 10.0 0.00 0.00 0.00 55 1014.7
20260508141132 60 329 3.0 10.0 0.00 0.00 0.00 57 1014.6
20260508140631 59 239 3.0 9.0 0.00 0.00 0.00 57 1014.8
20260508140356 59 172 4.0 9.0 0.00 0.00 0.00 54 1015.0
20260508135631 59 345 3.0 9.0 0.00 0.00 0.00 55 1014.5
20260508135131 58 0 4.0 9.0 0.00 0.00 0.00 54 1014.9
20260508134626 58 293 3.0 8.0 0.00 0.00 0.00 54 1014.8
20260508134127 58 339 2.0 6.0 0.00 0.00 0.00 57 1014.9
20260508133626 58 0 2.0 6.0 0.00 0.00 0.00 60 1014.7
20260508133351 57 149 2.0 5.0 0.00 0.00 0.00 57 1015.2
20260508132627 57 290 2.0 5.0 0.00 0.00 0.00 60 1014.7
20260508132128 57 290 2.0 6.0 0.00 0.00 0.00 61 1014.7
20260508131627 57 0 1.0 6.0 0.00 0.00 0.00 59 1014.6
20260508131127 57 0 1.0 5.0 0.00 0.00 0.00 59 1014.4
20260508130629 57 0 1.0 4.0 0.00 0.00 0.00 62 1014.4
20260508130126 57 148 1.0 3.0 0.00 0.00 0.00 63 1014.5
20260508125626 57 96 1.0 3.0 0.00 0.00 0.00 60 1014.6
20260508125126 56 72 1.0 3.0 0.00 0.00 0.00 65 1014.4
20260508124626 56 0 1.0 3.0 0.00 0.00 0.00 63 1014.6
20260508124125 55 0 0.0 3.0 0.00 0.00 0.00 61 1014.5
20260508123624 54 201 0.0 2.0 0.00 0.00 0.00 66 1014.6
20260508123123 53 0 0.0 2.0 0.00 0.00 0.00 66 1014.2
20260508122623 52 0 0.0 2.0 0.00 0.00 0.00 70 1014.3
20260508122123 50 0 0.0 2.0 0.00 0.00 0.00 74 1014.2
20260508121620 49 0 0.0 2.0 0.00 0.00 0.00 75 1014.1
20260508121123 48 101 0.0 2.0 0.00 0.00 0.00 77 1014.0
20260508120619 48 0 0.0 2.0 0.00 0.00 0.00 75 1014.0
20260508120116 49 241 0.0 2.0 0.00 0.00 0.00 75 1014.0
20260508115618 48 0 0.0 2.0 0.00 0.00 0.00 76 1013.9
20260508115116 48 0 0.0 2.0 0.00 0.00 0.00 76 1013.9
20260508114611 47 43 0.0 2.0 0.00 0.00 0.00 77 1013.8
20260508114113 47 0 0.0 2.0 0.00 0.00 0.00 80 1013.7
20260508113612 47 54 0.0 1.0 0.00 0.00 0.00 79 1013.7
20260508113111 47 80 0.0 1.0 0.00 0.00 0.00 78 1013.7
20260508112611 47 0 0.0 2.0 0.00 0.00 0.00 78 1013.7
20260508112112 47 0 0.0 2.0 0.00 0.00 0.00 80 1013.6
20260508111840 46 0 0.0 2.0 0.00 0.00 0.00 80 1013.6
20260508111113 46 65 0.0 2.0 0.00 0.00 0.00 79 1013.5
20260508110613 46 0 0.0 1.0 0.00 0.00 0.00 80 1013.5
20260508110113 46 0 0.0 1.0 0.00 0.00 0.00 80 1013.4
20260508105832 46 0 0.0 1.0 0.00 0.00 0.00 82 1013.3
20260508105322 45 56 0.0 2.0 0.00 0.00 0.00 81 1013.3
20260508104551 45 0 0.0 2.0 0.00 0.00 0.00 81 1013.3
20260508104046 45 0 0.0 1.0 0.00 0.00 0.00 85 1013.3
20260508103545 45 0 0.0 1.0 0.00 0.00 0.00 85 1013.3
20260508103045 45 0 0.0 1.0 0.00 0.00 0.00 84 1013.4
20260508102545 45 0 0.0 1.0 0.00 0.00 0.00 83 1013.4
20260508102047 45 0 0.0 1.0 0.00 0.00 0.00 84 1013.4
20260508101544 44 0 0.0 1.0 0.00 0.00 0.00 85 1013.4
20260508101044 44 0 0.0 0.0 0.00 0.00 0.00 84 1013.4
20260508100757 44 0 0.0 2.0 0.00 0.00 0.00 82 1013.4
20260508100637 44 0 0.0 1.0 0.00 0.00 0.00 83 1013.3
20260508095536 44 93 0.0 2.0 0.00 0.00 0.00 83 1013.4
20260508095029 44 0 0.0 2.0 0.00 0.00 0.00 82 1013.4
20260508094759 44 0 0.0 2.0 0.00 0.00 0.00 83 1013.5
20260508094031 44 63 0.0 1.0 0.00 0.00 0.00 83 1013.4
20260508093531 44 0 0.0 1.0 0.00 0.00 0.00 84 1013.5
20260508093033 44 0 0.0 2.0 0.00 0.00 0.00 84 1013.5
20260508092528 44 0 0.0 2.0 0.00 0.00 0.00 84 1013.5
20260508092028 44 244 0.0 0.0 0.00 0.00 0.00 85 1013.4
20260508091526 44 0 0.0 1.0 0.00 0.00 0.00 84 1013.4
20260508091022 44 270 0.0 1.0 0.00 0.00 0.00 84 1013.5
20260508090517 44 0 0.0 2.0 0.00 0.00 0.00 87 1013.4
20260508090019 44 309 0.0 2.0 0.00 0.00 0.00 87 1013.3
20260508085514 43 260 0.0 2.0 0.00 0.00 0.00 87 1013.4
20260508085016 43 70 0.0 2.0 0.00 0.00 0.00 87 1013.3
20260508084515 43 97 0.0 1.0 0.00 0.00 0.00 88 1013.2
20260508084015 42 77 0.0 1.0 0.00 0.00 0.00 87 1013.3
20260508083515 42 19 0.0 2.0 0.00 0.00 0.00 86 1013.3
20260508083016 42 58 0.0 2.0 0.00 0.00 0.00 86 1013.4
20260508082515 41 89 0.0 2.0 0.00 0.00 0.00 86 1013.3
20260508082015 41 0 1.0 2.0 0.00 0.00 0.00 85 1013.3
20260508081516 41 42 1.0 2.0 0.00 0.00 0.00 85 1013.3
20260508081016 41 51 1.0 3.0 0.00 0.00 0.00 84 1013.3
20260508080516 41 78 1.0 3.0 0.00 0.00 0.00 85 1013.3
20260508080005 41 78 1.0 2.0 0.00 0.00 0.00 84 1013.3
20260508075503 41 0 1.0 3.0 0.00 0.00 0.00 84 1013.3
20260508074950 41 80 1.0 3.0 0.00 0.00 0.00 85 1013.2
20260508074448 42 65 1.0 2.0 0.00 0.00 0.00 85 1013.3
20260508073948 42 63 1.0 2.0 0.00 0.00 0.00 84 1013.2
20260508073710 42 76 1.0 3.0 0.00 0.00 0.00 83 1013.2
20260508072947 42 79 1.0 3.0 0.00 0.00 0.00 83 1013.2
20260508072449 42 82 1.0 2.0 0.00 0.00 0.00 83 1013.2
20260508071948 42 87 1.0 2.0 0.00 0.00 0.00 82 1013.3
20260508071447 42 0 0.0 2.0 0.00 0.00 0.00 82 1013.4
20260508070948 42 0 1.0 2.0 0.00 0.00 0.00 82 1013.4
20260508070445 43 20 0.0 2.0 0.00 0.00 0.00 81 1013.4
20260508065945 43 14 1.0 2.0 0.00 0.00 0.00 80 1013.4
20260508065445 43 20 1.0 2.0 0.00 0.00 0.00 80 1013.4
20260508064934 43 67 1.0 2.0 0.00 0.00 0.00 80 1013.5
20260508064432 43 0 0.0 2.0 0.00 0.00 0.00 79 1013.7
20260508064155 43 0 1.0 2.0 0.00 0.00 0.00 79 1013.7
20260508063651 43 66 1.0 2.0 0.00 0.00 0.00 79 1013.8
20260508062932 43 79 1.0 2.0 0.00 0.00 0.00 79 1013.9
20260508062432 43 88 1.0 2.0 0.00 0.00 0.00 79 1013.9
20260508061933 43 76 1.0 2.0 0.00 0.00 0.00 80 1013.9
20260508061432 43 72 0.0 2.0 0.00 0.00 0.00 80 1013.9
20260508060932 43 0 0.0 2.0 0.00 0.00 0.00 79 1013.9
20260508060431 43 95 1.0 2.0 0.00 0.00 0.00 79 1013.9
20260508055927 43 0 0.0 2.0 0.00 0.00 0.00 79 1013.8
20260508055425 43 310 1.0 2.0 0.00 0.00 0.00 80 1013.8
20260508054918 43 77 1.0 2.0 0.00 0.00 0.00 80 1013.8
20260508054418 44 59 1.0 3.0 0.00 0.00 0.00 79 1013.9
20260508053917 44 80 1.0 3.0 0.00 0.00 0.00 78 1013.9
20260508053417 44 0 0.0 2.0 0.00 0.00 0.00 77 1014.0
20260508052918 44 0 0.0 2.0 0.00 0.00 0.00 77 1013.9
20260508052909 44 0 0.0 2.0 0.00 0.00 0.00 77 1013.9
20260508051917 44 0 0.0 1.0 0.00 0.00 0.00 75 1013.9
20260508051414 44 63 0.0 1.0 0.00 0.00 0.00 75 1013.9
20260508050913 45 0 0.0 2.0 0.00 0.00 0.00 74 1013.9
20260508050406 45 0 1.0 2.0 0.00 0.00 0.00 74 1013.9
20260508050127 45 23 1.0 2.0 0.00 0.00 0.00 73 1014.0
20260508045614 45 59 0.0 1.0 0.00 0.00 0.00 72 1014.0
20260508044850 45 72 0.0 1.0 0.00 0.00 0.00 72 1014.0
20260508044350 45 0 0.0 2.0 0.00 0.00 0.00 71 1014.0
20260508043850 45 0 1.0 2.0 0.00 0.00 0.00 72 1014.0
20260508043352 45 79 0.0 2.0 0.00 0.00 0.00 72 1013.9
20260508042852 45 0 0.0 2.0 0.00 0.00 0.00 72 1013.9
20260508042619 45 0 0.0 2.0 0.00 0.00 0.00 73 1013.8
20260508041851 45 92 1.0 2.0 0.00 0.00 0.00 72 1013.8
20260508041347 45 86 1.0 2.0 0.00 0.00 0.00 72 1013.8
20260508040848 45 72 0.0 1.0 0.00 0.00 0.00 72 1013.9
20260508040348 45 0 1.0 2.0 0.00 0.00 0.00 72 1013.8
20260508035848 45 0 1.0 2.0 0.00 0.00 0.00 73 1013.7
20260508035603 45 103 1.0 2.0 0.00 0.00 0.00 73 1013.7
20260508034835 45 97 1.0 2.0 0.00 0.00 0.00 73 1013.8
20260508034600 46 0 0.0 2.0 0.00 0.00 0.00 72 1013.8
20260508033835 46 0 1.0 2.0 0.00 0.00 0.00 72 1013.8
20260508033335 46 88 1.0 2.0 0.00 0.00 0.00 73 1013.8
20260508033317 46 0 1.0 2.0 0.00 0.00 0.00 71 1013.9
20260508032336 46 80 1.0 2.0 0.00 0.00 0.00 72 1013.9
20260508031836 46 91 0.0 2.0 0.00 0.00 0.00 70 1013.9
20260508031333 46 0 0.0 2.0 0.00 0.00 0.00 70 1014.0
20260508030832 46 0 0.0 2.0 0.00 0.00 0.00 71 1013.9
20260508030331 46 0 0.0 2.0 0.00 0.00 0.00 71 1013.8
20260508030057 46 71 0.0 2.0 0.00 0.00 0.00 74 1013.7
20260508025545 46 49 1.0 2.0 0.00 0.00 0.00 76 1013.5
20260508024826 46 100 1.0 2.0 0.00 0.00 0.00 72 1013.7
20260508024326 46 82 0.0 2.0 0.00 0.00 0.00 72 1013.8
20260508023824 46 76 0.0 2.0 0.00 0.00 0.00 72 1013.8
20260508023324 46 0 0.0 2.0 0.00 0.00 0.00 73 1013.8
20260508022823 46 0 0.0 2.0 0.00 0.00 0.00 72 1013.8
20260508022321 46 13 0.0 2.0 0.00 0.00 0.00 73 1013.7
20260508022045 46 346 1.0 2.0 0.00 0.00 0.00 73 1013.7
20260508021322 46 0 1.0 3.0 0.00 0.00 0.00 75 1013.6
20260508020822 47 75 1.0 3.0 0.00 0.00 0.00 73 1013.7
20260508020322 47 0 0.0 2.0 0.00 0.00 0.00 73 1013.7
20260508015824 47 0 1.0 3.0 0.00 0.00 0.00 74 1013.7
20260508015319 47 60 1.0 3.0 0.00 0.00 0.00 74 1013.6
20260508014818 47 87 1.0 3.0 0.00 0.00 0.00 73 1013.6
20260508014317 47 73 1.0 4.0 0.00 0.00 0.00 73 1013.6
20260508013816 47 0 1.0 4.0 0.00 0.00 0.00 73 1013.6
20260508013317 47 83 1.0 4.0 0.00 0.00 0.00 73 1013.6
20260508012816 48 69 1.0 4.0 0.00 0.00 0.00 74 1013.6
20260508012315 48 54 1.0 3.0 0.00 0.00 0.00 72 1013.6
20260508011813 48 63 1.0 3.0 0.00 0.00 0.00 73 1013.6
20260508011312 49 0 1.0 2.0 0.00 0.00 0.00 66 1013.7
20260508010813 49 56 0.0 2.0 0.00 0.00 0.00 67 1013.7
20260508010313 50 0 0.0 2.0 0.00 0.00 0.00 66 1013.7
20260508005813 50 0 0.0 2.0 0.00 0.00 0.00 62 1013.7
20260508005313 51 0 0.0 2.0 0.00 0.00 0.00 59 1013.7
20260508004815 51 0 0.0 2.0 0.00 0.00 0.00 59 1013.7
20260508004315 52 350 0.0 2.0 0.00 0.00 0.00 56 1013.7
20260508003812 52 81 1.0 3.0 0.00 0.00 0.00 56 1013.7
20260508003308 53 357 1.0 3.0 0.00 0.00 0.00 58 1013.6
20260508002809 54 0 0.0 2.0 0.00 0.00 0.00 54 1013.7